Location: Clarion
(42.7316°N, 93.7330°W)
Time: 21:18:41
(UTC+00:00)

Helios 1A Rocket - Pass Details

Date: 22 April 2026
Orbit: 406 x 416 km, 98.3° (Epoch: 12 May)

Event Time Altitude Azimuth Distance (km) Brightness Sun altitude
Rises 02:30:21 0° 7° (N) 2,376 6.4 -15.1°
Reaches altitude 10° 02:32:24 10° 1° (N) 1,504 5.5 -15.4°
Maximum altitude 02:35:28 44° 288° (WNW) 585 3.4 -15.9°
Drops below altitude 10° 02:38:31 10° 214° (SW) 1,482 5.0 -16.3°
Sets 02:40:32 0° 208° (SSW) 2,336 6.0 -16.6°
